星链-30406 (STARLINK-30406 )

导读 | 星芒AI

STARLINK-30406 是 SpaceX Starlink 卫星互联网项目中的一颗低轨道卫星。该卫星属于 Starlink 群体部署计划的一部分,旨在为全球用户提供高速、低延迟的宽带互联网服务。它运行在约 550 公里的轨道高度,配备先进通信设备,支持全球范围内的数据传输。作为 Starlink 计划的组成部分,该卫星有助于扩大互联网覆盖范围,特别是在偏远和网络基础设施薄弱的地区。

基本信息
目录编号:
57881
目录名称:
STARLINK-30406
国际标识:
2023-144T
轨道中心:
EARTH
卫星名称:
星链-30406
卫星全名:
星链-30406 (STARLINK-30406 )
卫星状态:
已陨落 最后检测时间 2025-01-09
发射日期:
2023-09-16 UTC
国别 :
美国 (US)
星等 :
--
轨道信息
数据来源 国际轨道数据
星历时间: 2025-01-09T02:11:27+0800
轨道信息已过期344天
半长轴: 6564.052km
偏心率: 0.0013616
轨道倾角: 42.976°
近地点辐角 115.933°
升交点赤经 21.756°
平近点角 26.121°
近地点: 176.979km
远地点: 194.855km
周期: 88.210分钟
每日圈数: 16.324684
详细信息
固有亮度:
5
最大亮度:
0.3
卫星平台:
Starlink v2.0 mini
覆盖范围:
全球
运营商:
太空探索技术公司
运营商所在国:
美国
制造商(研发单位):
太空探索技术公司
制造商所在国:
美国
使用方式:
暂无
卫星简介
星链(Starlink)计划是由太空探索技术公司(SpaceX)提出的一个巨型低轨卫星互联网星座项目,计划在2019年至2024年间在太空搭建由约1.2万颗卫星组成的“星链”网络,其中1584颗将部署在地球上空550千米处的近地轨道,并从2020年开始工作。该卫星仍在工作。